Location: Cornospital
(48.0620°N, 3.3837°W)
Time: 19:35:31
(UTC+00:00)

COSMOS 2428 - Pass Details

Date: 17 June 2021
Orbit: 845 x 858 km, 70.9° (Epoch: 03 August)

Event Time Altitude Azimuth Distance (km) Brightness Sun altitude
Exits shadow 21:48:22 14° 158° (SSE) 2,188 4.2 -11.4°
Maximum altitude 21:52:20 31° 104° (ESE) 1,475 3.6 -11.7°
Drops below altitude 10° 21:57:16 10° 45° (NE) 2,501 5.3 -12.2°
Sets 21:59:59 0° 35° (NE) 3,442 6.2 -12.4°
